RH
13 12 12 12 12 10 8 7 8 9 9 8 7 9 8 6 6 6 6 6 6 9 15 20 26 36 44 52 60 66 75 73 69 61 69 59 59 59 52 45 46 47 55 56 57
14 13 13 14 13 13 11 10 8 7 8 9 8 7 8 8 6 6 6 5 5 9 12 19 28 37 45 54 68 72 70 75 77 80 81 70 60 61 55 53 48 46 50 56 59
15 14 14 14 14 13 12 12 11 9 8 7 9 9 7 8 11 11 8 6 5 8 11 17 30 37 45 53 67 79 83 72 78 80 79 79 64 60 59 56 52 44 44 56 55
14 13 12 12 13 12 12 12 12 11 11 9 7 8 9 9 16 13 9 8 5 7 10 18 31 38 44 49 58 76 75 72 77 84 84 79 70 63 56 58 53 43 47 53 56
12 12 11 11 11 11 12 13 11 11 11 11 9 7 8 13 14 15 10 8 6 7 10 20 32 39 43 40 48 57 69 72 74 79 86 76 68 67 59 58 53 45 48 53 55
11 10 10 9 9 9 11 13 11 12 12 12 11 9 9 13 17 15 12 9 9 9 9 19 31 36 36 33 44 53 56 63 67 80 82 72 73 69 62 63 55 48 46 51 54
10 10 9 9 8 8 10 12 11 12 12 12 10 7 10 15 18 17 16 13 10 10 10 13 24 34 33 32 42 48 53 59 69 74 80 84 82 76 66 62 59 56 48 47 55
11 10 10 9 8 8 10 11 12 12 13 12 9 8 12 16 18 17 18 18 13 10 10 11 20 32 31 27 44 49 49 60 64 76 77 85 83 87 74 67 68 62 50 48 56
15 13 11 9 9 8 10 11 13 14 14 13 14 14 13 11 14 14 15 18 14 11 9 11 22 29 31 28 36 40 49 52 63 67 71 78 84 84 86 78 75 79 52 49 55
19 17 14 11 9 9 12 13 16 16 15 15 16 19 16 18 16 14 14 16 14 11 10 11 16 22 28 30 33 42 40 43 53 68 65 70 81 84 84 79 74 69 58 50 53
22 22 17 12 11 12 15 18 19 20 19 18 18 18 18 17 15 16 14 13 14 11 11 13 16 20 28 30 30 33 36 39 48 64 63 60 73 83 85 82 77 67 64 56 56
23 24 21 13 11 13 17 22 21 19 20 20 18 17 16 15 18 17 14 17 15 14 14 14 16 22 28 23 27 32 34 39 47 58 58 56 58 68 77 82 84 73 66 58 55
21 23 24 15 11 14 19 22 22 21 23 22 22 22 22 19 17 17 18 21 18 18 15 15 21 24 22 22 23 30 31 40 44 57 60 54 50 54 67 73 84 79 72 65 56
16 21 24 17 13 14 20 23 22 22 26 24 25 25 24 25 22 17 18 20 17 20 18 19 21 19 20 23 26 26 30 31 45 57 58 55 48 51 55 69 79 85 76 74 71
16 18 24 22 16 16 19 23 23 22 28 25 25 24 23 22 21 21 17 17 21 19 17 21 18 17 20 20 20 26 29 35 45 51 59 59 56 42 52 62 70 79 79 75 73
17 16 22 26 16 15 18 24 25 25 30 24 23 24 23 23 23 21 19 18 19 18 16 21 17 18 19 22 19 26 31 40 47 51 52 50 56 45 51 49 58 67 75 73 75
14 17 18 24 20 14 19 24 27 29 24 22 22 22 24 27 25 23 23 22 24 21 20 19 19 19 18 25 24 30 35 43 45 49 44 56 52 51 55 53 52 63 76 74 66
13 17 17 23 20 12 20 27 32 26 23 19 20 23 28 27 31 27 26 26 23 22 25 25 27 22 23 28 37 33 36 38 44 36 41 57 48 56 54 54 54 60 73 73 74
14 19 19 20 16 16 21 29 29 26 23 19 21 25 28 25 27 29 26 30 29 27 28 27 27 26 30 34 34 45 40 37 42 40 47 44 45 54 59 61 63 57 63 69 72
17 20 20 17 13 19 25 31 34 26 21 20 23 22 26 28 27 22 33 31 33 32 29 32 30 32 35 38 40 44 61 46 39 50 47 40 49 58 60 63 68 67 67 72 73
20 21 20 16 15 22 26 32 33 26 22 20 20 18 19 21 22 29 36 35 34 35 34 34 30 47 32 37 44 47 43 46 51 53 50 55 49 52 49 57 67 71 72 76 82
21 21 20 16 20 21 25 33 32 29 24 22 20 19 21 24 28 28 32 34 31 29 30 34 34 42 41 48 35 38 52 50 50 46 50 45 68 54 49 58 67 73 78 80 84
32 23 22 20 22 24 27 32 36 31 27 24 22 22 25 28 27 22 24 24 23 25 30 30 28 37 39 41 35 38 49 47 49 53 76 56 52 51 56 54 65 69 76 81 81
40 29 28 23 25 26 27 33 37 31 31 28 23 23 29 33 29 32 25 19 18 20 20 19 16 23 33 44 61 64 50 47 47 48 44 45 46 53 55 59 59 68 73 79 82
51 36 42 29 25 26 33 30 34 37 34 33 28 25 31 37 36 32 26 26 21 21 21 23 26 28 28 31 52 64 65 56 53 54 52 41 51 50 54 64 67 66 76 77 82
67 52 47 48 39 35 37 37 34 37 41 32 30 30 33 38 35 35 33 27 25 29 28 30 35 33 32 37 40 51 57 63 59 57 55 52 46 50 51 62 70 65 74 75 79
75 60 57 53 52 47 37 35 31 37 42 39 32 35 35 36 34 35 31 26 24 23 33 32 40 47 50 49 54 51 51 57 56 54 54 55 59 49 58 62 68 68 73 74 79